Location: ??????????
(54.4061°N, 22.6114°E)
Time: 01:27:26
(UTC+00:00)

Meteor 2-3 Rocket - Pass Details

Date: 23 October 2019
Orbit: 843 x 884 km, 81.2° (Epoch: 14 November)

Event Time Altitude Azimuth Distance (km) Brightness Sun altitude
Rises 17:16:57 0° 348° (NNW) 3,478 7.1 -18.5°
Reaches altitude 10° 17:19:37 10° 357° (N) 2,541 6.3 -18.9°
Maximum altitude 17:24:55 36° 64° (ENE) 1,368 4.4 -19.6°
Enters shadow 17:25:40 35° 80° (E) 1,402 4.3 -19.7°
